Home   Weather   Aktau   Past weeks

Flag for Kazakhstan Past Weather in Aktau, Kazakhstan — Yesterday and Last 2 Weeks

Now
79 °F

Sunny.


Feels Like: 78 °F
Forecast: 64 / 80 °F
Wind: 20 mph from Southeast

Location: Aktau

Current Time: Apr 30, 2017 at 6:24:28 pm

Latest Report: Apr 30, 2017 at 5:30 pm


Visibility: 10 mi

Pressure: 30.09 "Hg

Humidity: 15%

Dew Point: 27 °F

Location of AktauLocation

Past Weather in Aktau — Graph

°F

Aktau Temperature Yesterday

Maximum temperature yesterday: 81 °F (at 5:00 pm)
Minimum temperature yesterday: 52 °F (at 12:00 am)
Average temperature yesterday: 65 °F

High & Low Weather Summary for the Past Weeks

 TemperatureHumidityPressure
High81 °F (Apr 29, 5:00 pm)100% (Apr 16, 7:00 am)30.60 "Hg (Apr 16, 7:00 am)
Low34 °F (Apr 27, 5:30 am)11% (Apr 29, 7:30 pm)29.47 "Hg (Apr 24, 4:30 am)
Average56 °F63%30.12 "Hg
* Reported Apr 15 5:00 pm — Apr 30 5:00 pm, Aktau, Weather by CustomWeather, © 2017

Note: Actual official high and low records may vary slightly from our data, if they occured in-between our weather recording intervals... More about our weather records

Advertising

Aktau Weather History for the Previous 24 Hours

Scroll right to see more
 ConditionsComfort  
Time TempWeatherWind HumidityBarometerVisibility
5:00 pm
Sun, Apr 30
81 °FSunny.20 mph14%30.09 "Hg10 mi
4:30 pm81 °FSunny.20 mph14%30.09 "Hg10 mi
4:00 pm81 °FSunny.22 mph14%30.12 "Hg10 mi
3:30 pm81 °FSunny.22 mph14%30.12 "Hg10 mi
3:00 pm81 °FSunny.24 mph14%30.12 "Hg10 mi
2:30 pm79 °FSunny.24 mph16%30.15 "Hg10 mi
2:00 pm79 °FSunny.26 mph13%30.15 "Hg10 mi
1:30 pm77 °FSunny.24 mph15%30.15 "Hg10 mi
1:00 pm77 °FSunny.26 mph15%30.15 "Hg10 mi
12:30 pm75 °FSunny.26 mph16%30.15 "Hg10 mi
12:00 pm77 °FSunny.24 mph14%30.18 "Hg10 mi
11:30 am75 °FSunny.26 mph15%30.18 "Hg10 mi
11:00 am73 °FSunny.24 mph19%30.18 "Hg10 mi
10:30 am73 °FSunny.22 mph20%30.18 "Hg10 mi
10:00 am70 °FSunny.26 mph23%30.18 "Hg10 mi
9:30 am68 °FSunny.24 mph26%30.18 "Hg10 mi
8:30 am63 °FSunny.22 mph30%30.18 "Hg10 mi
8:00 am61 °FClear.15 mph31%30.18 "Hg10 mi
7:30 am59 °FClear.13 mph34%30.18 "Hg10 mi
7:00 am57 °FClear.13 mph33%30.18 "Hg10 mi
6:30 am59 °FClear.15 mph31%30.18 "Hg10 mi
6:00 am59 °FClear.15 mph31%30.18 "Hg10 mi
5:30 am57 °FClear.10 mph33%30.18 "Hg10 mi
5:00 am52 °FClear.13 mph41%30.18 "Hg10 mi
4:30 am52 °FClear.13 mph41%30.18 "Hg10 mi
4:00 am55 °FClear.13 mph33%30.18 "Hg10 mi
3:30 am59 °FClear.17 mph29%30.18 "Hg10 mi
3:00 am59 °FClear.13 mph29%30.21 "Hg10 mi
2:30 am59 °FClear.13 mph29%30.21 "Hg10 mi
2:00 am59 °FClear.10 mph27%30.21 "Hg10 mi
1:30 am61 °FClear.13 mph25%30.21 "Hg10 mi
12:30 am63 °FClear.17 mph22%30.21 "Hg10 mi
12:00 am64 °FClear.15 mph21%30.21 "Hg10 mi
11:00 pm
Sat, Apr 29
63 °FClear.15 mph24%30.21 "Hg10 mi
10:30 pm64 °FSunny.13 mph21%30.21 "Hg10 mi
10:00 pm64 °FSunny.13 mph21%30.21 "Hg10 mi
9:30 pm66 °FSunny.13 mph21%30.21 "Hg10 mi
9:00 pm64 °FSunny.10 mph22%30.18 "Hg10 mi
8:30 pm72 °FSunny.13 mph15%30.18 "Hg10 mi
8:00 pm75 °FSunny.15 mph13%30.18 "Hg10 mi
7:30 pm77 °FSunny.15 mph11%30.18 "Hg10 mi
7:00 pm77 °FSunny.17 mph13%30.18 "Hg10 mi
6:30 pm77 °FSunny.20 mph13%30.18 "Hg10 mi
Weather by CustomWeather, © 2017

See weather overviewHow to use our weather pages